Portada
METAR-TAF:

METAR-TAF

Aeropuertos :

Vereeniging, Sudáfrica

latitud: 26-34-29S, longitud: 027-57-45E, altitud: 1483 m

Observación

El informe se hizo hace 1 hora y 4 minutos, a las 14:00 UTC
Viento 7 kt del oeste-suroeste
Temperatura 29°C
Humedad 22%
Presión 1023 hPa

METAR: FAVV 231400Z AUTO 25007KT //// // ////// 29/05 Q1023

Hora: 17:04 (15:04 UTC)


TAF: falta

Observaciones y pronósticos meteorológicos de más de 4000 aeropuertos (mensajes METAR y TAF).

Los puntos amarillos y rojos representan las estaciones disponibles.

Ponga el ratón en el punto deseado para ver el nombre de la estación.

Haga clic para ver las observaciones y los pronósticos meteorológicos.

Para cambiar el mapa : haga clic en los botones verdes con una cruz de color negro para hacer un zoom, en el botón verde con un guión para alejar o en las flechas verdes para mapas adyacentes.


METAR-TAF: